Weather in Palolem

India     14°50′37″N   74°05′55″E
temp.,
°C
wind,
m/s
gust,
m/s
humid.,
%
clouds,
%
prec.,
mm/h
press.,
hPa
HPBL,
m
17 april, sat
sat1723:30+30nnw66680 0.0 1010859
02:30+29n45641 0.0 1009747
05:30+29n55680 0.0 1010631
08:30+28n44720 0.0 1012472
11:30+28wnw45720 0.0 1012533
14:30+30w66670 0.0 1009662
17:30+30wnw66680 0.0 1009816
20:30+30nw77680 0.0 1011885
18 april, sun
sun1823:30+30nw56680 0.0 1012893
02:30+29nw45701 0.0 1010879
05:30+29nnw447213 0.0 1011815
08:30+28n23748 0.0 1013542
11:30+29w33745 0.0 1013628
14:30+29w66721 0.0 1009808
17:30+29wnw567368 0.0 10091040
20:30+30wnw667091 0.1 10121153
19 april, mon
mon1923:30+30wnw447054 0.1 10121026
02:30+29wnw447290 0.1 1010721
05:30+29wnw3369100 0.1 1011744
08:30+29wnw447098 0.1 1013459
11:30+29wnw446822 0.1 1012607
14:30+29wnw66705 0.0 1009767
17:30+29wnw7872100 0.0 1008962
20:30+30wnw667178 0.0 10101091
20 april, tue
tue2023:30+29wnw667010 0.0 10111116
02:30+29nw667083 0.1 10081269
05:30+29nw676721 0.1 10091214
08:30+29nnw45705 0.0 1011862
11:30+29wnw44710 0.0 1011652
14:30+29wnw77704 0.0 1008630
17:30+29nw88695 0.0 1007794
20:30+30nw99700 0.0 10091048
21 april, wed
wed2123:30+29nw89723 0.0 10101053
02:30+29nnw887324 0.0 10081136
05:30+29nnw787320 0.1 1009958
08:30+28nne447614 0.1 1012481
11:30+28wnw6778100 0.1 1011497
14:30+29wnw99725 0.0 1009792
17:30+29nw1010725 0.0 1008876
20:30+30nw910735 0.0 1010966